This demonstration page uses our WeatherBlox Daily Observations layout. Learn more.

Hourly Observations for September 4, 2015

Temp ( °F °C ) Dew Point ( °F °C ) Humidity (%) Winds ( mph kmh ) Pressure ( in mb ) Visibility ( mi km ) Precip ( " mm )
12:15 am 00:15 Clear 78 25.8 60 15.5 53 53 SSE 13 20 29.65 1004 10 16.0934 0 0
12:35 am 00:35 Clear 78 25.8 60 15.7 54 54 SSE 10 17 29.65 1004 10 16.0934 0 0
12:55 am 00:55 Clear 78 25.6 60 15.8 55 55 SSE 10 17 29.65 1004 10 16.0934 0 0
1:15 am 01:15 Clear 78 25.3 60 15.8 56 56 SSE 12 19 29.65 1004 10 16.0934 0 0
1:35 am 01:35 Clear 77 25 60 15.8 57 57 SSE 10 17 29.65 1004 10 16.0934 0 0
1:55 am 01:55 Clear 77 24.8 60 15.8 57 57 SSE 12 19 29.65 1004 10 16.0934 0 0
2:15 am 02:15 Clear 76 24.4 61 15.9 59 59 SSE 7 11 29.71 1006 10 16.0934 0 0
2:35 am 02:35 Clear 75 24.1 60 15.8 60 60 S 9 15 29.68 1005 10 16.0934 0 0
2:55 am 02:55 Clear 76 24.5 60 15.6 58 58 S 5 7 29.68 1005 10 16.0934 0 0
3:15 am 03:15 Clear with Nearby Thunderstorms 74 23.2 61 15.9 64 64 SSE 10 17 29.68 1005 10 16.0934 0 0
3:35 am 03:35 Clear 73 22.6 61 16 66 66 S 7 11 29.68 1005 10 16.0934 0 0
3:55 am 03:55 Clear with Nearby Thunderstorms 73 23 60 15.8 64 64 SSE 9 15 29.68 1005 10 16.0934 0 0
4:15 am 04:15 Clear 72 22.3 60 15.7 66 66 SSE 5 7 29.68 1005 10 16.0934 0 0
4:35 am 04:35 Clear 71 21.5 60 15.8 70 70 SSE 8 13 29.68 1005 10 16.0934 0 0
4:55 am 04:55 Clear 70 21.3 60 15.8 71 71 SSE 6 9 29.68 1005 10 16.0934 0 0
5:15 am 05:15 Clear 69 20.7 60 15.7 73 73 SSE 3 6 29.68 1005 10 16.0934 0 0
5:35 am 05:35 Clear with Nearby Thunderstorms 70 21 60 15.7 72 72 SSE 8 13 29.68 1005 10 16.0934 0 0
5:55 am 05:55 Clear 71 21.5 60 15.4 68 68 SSE 9 15 29.68 1005 10 16.0934 0 0
6:15 am 06:15 Clear 72 22 59 15 65 65 SSE 10 17 29.68 1005 10 16.0934 0 0
6:35 am 06:35 Clear 71 21.8 59 15 65 65 SSE 12 19 29.68 1005 10 16.0934 0 0
6:55 am 06:55 Clear 73 22.5 58 14.7 61 61 S 12 19 29.71 1006 10 16.0934 0 0
7:15 am 07:15 Sunny 71 21.8 59 14.8 65 65 SSE 9 15 29.71 1006 10 16.0934 0 0
7:35 am 07:35 Sunny 71 21.6 59 15 66 66 SSE 10 17 29.71 1006 10 16.0934 0 0
7:55 am 07:55 Sunny 72 22.1 59 15.2 65 65 SSE 12 19 29.71 1006 10 16.0934 0 0
8:15 am 08:15 Sunny 73 22.9 60 15.4 63 63 SSE 14 22 29.71 1006 10 16.0934 0 0
8:35 am 08:35 Sunny 74 23.5 60 15.5 61 61 SSE 16 26 29.71 1006 10 16.0934 0 0
8:55 am 08:55 Sunny 75 24 60 15.8 60 60 SSE 13 20 29.74 1007 10 16.0934 0 0
9:15 am 09:15 Sunny 76 24.3 61 16 60 60 SSE 14 22 29.74 1007 10 16.0934 0 0
9:35 am 09:35 Sunny 76 24.5 61 15.9 59 59 SSE 16 26 29.74 1007 10 16.0934 0 0
9:55 am 09:55 Sunny 76 24.2 61 15.9 60 60 SSE 16 26 29.74 1007 10 16.0934 0 0
10:15 am 10:15 Sunny 78 25.5 60 15.7 55 55 S 18 30 29.71 1006 10 16.0934 0 0
10:35 am 10:35 Sunny 79 25.9 60 15.5 53 53 S 22 35 29.71 1006 10 16.0934 0 0
10:55 am 10:55 Sunny 80 26.5 60 15.6 51 51 S 18 30 29.71 1006 10 16.0934 0 0
11:15 am 11:15 Sunny 81 27 60 15.4 49 49 S 17 28 29.71 1006 10 16.0934 0 0
11:35 am 11:35 Sunny 82 27.9 59 15.2 46 46 S 16 26 29.71 1006 10 16.0934 0 0
11:55 am 11:55 Sunny 84 28.7 60 15.4 44 44 S 15 24 29.68 1005 10 16.0934 0 0
12:15 pm 12:15 Sunny 85 29.6 59 15.1 41 41 S 16 26 29.68 1005 10 16.0934 0 0
12:35 pm 12:35 Sunny 86 30 58 14.7 39 39 S 21 33 29.68 1005 7 11.26538 0 0
12:55 pm 12:55 Sunny 87 30.4 58 14.7 38 38 S 18 30 29.68 1005 10 16.0934 0 0
1:15 pm 13:15 Sunny 87 30.7 58 14.6 38 38 S 16 26 29.68 1005 10 16.0934 0 0
1:35 pm 13:35 Sunny 88 31.1 58 14.7 37 37 S 15 24 29.68 1005 10 16.0934 0 0
1:55 pm 13:55 Sunny 90 32.2 58 14.2 34 34 S 15 24 29.65 1004 10 16.0934 0 0
2:15 pm 14:15 Sunny 91 32.5 57 13.9 32 32 S 18 30 29.62 1003 10 16.0934 0 0
2:35 pm 14:35 Sunny 91 33 57 14.1 32 32 S 15 24 29.62 1003 10 16.0934 0 0
2:55 pm 14:55 Sunny 92 33.1 57 14.1 32 32 S 15 24 29.62 1003 10 16.0934 0 0
3:15 pm 15:15 Sunny 93 33.8 57 13.7 30 30 S 15 24 29.62 1003 10 16.0934 0 0
3:35 pm 15:35 Sunny 94 34.4 57 13.7 29 29 S 16 26 29.62 1003 10 16.0934 0 0
3:55 pm 15:55 Sunny 94 34.5 56 13.5 28 28 S 13 20 29.62 1003 10 16.0934 0 0
4:15 pm 16:15 Sunny 95 35 55 12.6 26 26 S 16 26 29.62 1003 10 16.0934 0 0
4:35 pm 16:35 Sunny 95 35.1 55 13 26 26 S 15 24 29.62 1003 10 16.0934 0 0
4:55 pm 16:55 Sunny 95 35 55 12.7 26 26 S 14 22 29.59 1002 10 16.0934 0 0
5:15 pm 17:15 Sunny 95 35 56 13.1 27 27 S 13 20 29.59 1002 10 16.0934 0 0
5:35 pm 17:35 Sunny 95 34.9 55 12.7 26 26 S 10 17 29.59 1002 10 16.0934 0 0
5:55 pm 17:55 Sunny 95 35 55 12.7 26 26 S 13 20 29.59 1002 10 16.0934 0 0
6:15 pm 18:15 Sunny 94 34.4 55 12.7 27 27 S 13 20 29.59 1002 10 16.0934 0 0
6:35 pm 18:35 Sunny 93 33.7 55 13 28 28 S 9 15 29.59 1002 10 16.0934 0 0
6:55 pm 18:55 Sunny 92 33.1 56 13.6 31 31 S 7 11 29.59 1002 10 16.0934 0 0
7:15 pm 19:15 Sunny 90 32.1 57 14 33 33 S 7 11 29.62 1003 10 16.0934 0 0
7:35 pm 19:35 Sunny 87 30.7 59 14.8 38 38 SSE 5 7 29.65 1004 10 16.0934 0 0
7:55 pm 19:55 Sunny 83 28.6 59 15.2 44 44 SSE 6 9 29.65 1004 10 16.0934 0 0
8:15 pm 20:15 Clear 83 28.3 59 15.2 45 45 SE 7 11 29.68 1005 10 16.0934 0 0
8:35 pm 20:35 Clear 81 27.3 60 15.7 49 49 SSE 7 11 29.68 1005 10 16.0934 0 0
8:55 pm 20:55 Clear 81 27 60 15.8 50 50 SSE 10 17 29.68 1005 10 16.0934 0 0
9:15 pm 21:15 Clear 82 27.8 60 15.5 47 47 SSE 10 17 29.68 1005 10 16.0934 0 0
9:35 pm 21:35 Clear 84 28.8 59 15 43 43 SSE 13 20 29.68 1005 10 16.0934 0 0
9:55 pm 21:55 Clear 84 28.8 59 15 43 43 S 16 26 29.68 1005 10 16.0934 0 0
10:15 pm 22:15 Clear 83 28.3 60 15.3 45 45 SSE 12 19 29.71 1006 10 16.0934 0 0
10:35 pm 22:35 Clear 80 26.9 60 15.8 51 51 SSE 9 15 29.71 1006 10 16.0934 0 0
10:55 pm 22:55 Clear 81 27 61 16 51 51 S 10 17 29.74 1007 10 16.0934 0 0
11:15 pm 23:15 Clear 80 26.8 61 16 52 52 S 10 17 29.74 1007 10 16.0934 0 0
11:35 pm 23:35 Clear 80 26.5 61 16 53 53 S 12 19 29.74 1007 10 16.0934 0 0
11:55 pm 23:55 Clear 79 26.1 61 16 54 54 SSE 10 17 29.74 1007 10 16.0934 0 0

Powered by AerisWeather